Погода в Новооржицком

Украина / Полтавская область     50°01′26″N   32°43′41″E
темп.,
°C
ветер,
м/с
пор.,
м/с
влажн.,
%
обл.,
%
осадки,
мм/ч
давл.,
гПа
погр.,
м
15 мая, сб
сб1500:00+14ю388442 0.0 1008176
03:00+11ю37950 0.0 1009135
06:00+11ююз38965 0.0 1010196
09:00+16юз46765 0.0 1011581
12:00+20юз57622 0.2 10111408
15:00+21юз565685 0.9 10111700
18:00+16зсз3676100 0.3 1012159
21:00+15з2278100 0.3 101321
16 мая, вс
вс1600:00+15зсз117720 0.0 101311
03:00+12сз118670 0.0 101310
06:00+12ссз22875 0.0 101428
09:00+17св22710 0.0 1014320
12:00+21вюв3359100 0.0 10131057
15:00+23вюв345097 0.0 10121894
18:00+23вюв245863 0.0 10111207
21:00+17всв3373100 0.0 101037
17 мая, пн
пн1700:00+15всв348190 0.0 100960
03:00+17св4875100 0.0 1007173
06:00+15вюв2594100 1.8 1007118
09:00+17сз4587100 3.0 1006339
12:00+20с5576100 0.0 10051019
15:00+20ссз5579100 0.1 1005519
18:00+19сз5786100 0.7 1005463
21:00+15сз3895100 1.9 1006261
18 мая, вт
вт1800:00+14зсз3697100 2.1 1006243
03:00+13зсз2295100 2.3 100645
06:00+13з2294100 0.0 100773
09:00+17зюз3380100 0.0 1007431
12:00+19ююв237147 0.4 1007940
15:00+21юз566347 2.9 10061380
18:00+16ююз5988100 2.6 1006464
21:00+15ссз1192100 4.2 100623
19 мая, ср
ср1900:00+14сз239569 1.3 100797
03:00+13зюз249499 1.3 1008145
06:00+12зюз359750 0.0 1009156
09:00+16юз2277100 0.0 1010510
12:00+18ююз2366100 0.1 10101128
15:00+18ю6675100 0.9 1010847
18:00+14вюв2394100 0.9 1009239
21:00+14юв3698100 3.1 1009284